OBJECT_NAME,OBJECT_ID,EPOCH,MEAN_MOTION,ECCENTRICITY,INCLINATION,RA_OF_ASC_NODE,ARG_OF_PERICENTER,MEAN_ANOMALY,EPHEMERIS_TYPE,CLASSIFICATION_TYPE,NORAD_CAT_ID,ELEMENT_SET_NO,REV_AT_EPOCH,BSTAR,MEAN_MOTION_DOT,MEAN_MOTION_DDOT INMARSAT 4-F2 (SOUTHPAN/PRN 122),2005-044A,2026-09-12T06:01:57.059040,1.00271168,.00023333,5.2089,43.7219,130.7260,50.8032,0,U,28899,999,7639,0,-.272E-5,0 GSAT-8 (GAGAN/PRN 127),2011-022A,2026-09-12T05:36:44.476704,1.00271562,.00057933,2.3500,80.6681,156.9482,252.9059,0,U,37605,999,5409,0,.71E-6,0 LUCH 5A (SDCM/PRN 140),2011-074B,2026-09-12T07:12:21.561984,1.00272684,.00038825,8.9694,72.5067,120.8575,72.9739,0,U,37951,999,5392,0,-.6E-6,0 SES-5 (EGNOS/PRN 136),2012-036A,2026-09-12T07:05:06.004032,1.00270079,.00019729,0.0150,43.1070,124.0606,295.3840,0,U,38652,999,4533,0,0,0 GSAT-10 (GAGAN/PRN 128),2012-051B,2026-09-12T03:22:21.728928,1.00273324,.00056203,0.0556,270.2303,201.8742,12.6259,0,U,38779,999,5097,0,-.18E-5,0 LUCH 5B (SDCM/PRN 125),2012-061A,2026-09-12T05:16:23.927232,1.00269791,.00060089,10.6683,48.9944,165.3581,199.6580,0,U,38977,999,5048,0,-.148E-5,0 ASTRA 5B (EGNOS/PRN 123),2014-011B,2026-09-12T05:27:45.338112,1.00269300,.00028069,0.1039,293.5902,256.5197,266.5756,0,U,39617,999,4554,0,.122E-5,0 LUCH 5V (SDCM/PRN 141),2014-023A,2026-09-12T00:40:05.422656,1.00270837,.00026582,5.3446,68.7928,139.8943,247.1260,0,U,39727,999,4523,0,-.281E-5,0 GSAT-15 (GAGAN/PRN 139),2015-065A,2026-09-12T02:22:25.608864,1.00269430,.00016503,0.0447,264.7267,239.0915,336.3790,0,U,41028,999,3967,0,-.272E-5,0 EUTELSAT 117 WEST B (WAAS/PRN 131),2016-038B,2026-09-12T06:30:24.329952,1.00271804,.00000969,0.0372,14.1157,184.7473,133.0193,0,U,41589,999,3753,0,-.26E-6,0 SES-15 (WAAS/PRN 133),2017-026A,2026-09-12T06:26:54.664800,1.00269096,.00003657,0.0490,328.9875,178.6946,171.1639,0,U,42709,999,830,0,.45E-6,0 QZS-2 (QZSS/PRN 194),2017-028A,2026-09-11T19:43:20.736192,1.00261633,.07506816,39.3043,241.8780,270.3972,275.9800,0,U,42738,999,849,0,-.19E-5,0 QZS-3 (QZSS/PRN 199),2017-048A,2026-09-11T23:06:44.374176,1.00275047,.00016161,0.0521,162.5194,347.4711,314.6970,0,U,42917,999,3312,0,-.363E-5,0 QZS-4 (QZSS/PRN 195),2017-062A,2026-09-11T13:27:38.627136,1.00274735,.07496992,40.0519,342.3827,269.6347,81.1278,0,U,42965,999,3266,0,-.343E-5,0 BEIDOU-3 G1 (PRN 130),2018-085A,2026-09-12T07:32:21.605280,1.00271639,.00059599,2.6093,94.9051,21.2547,148.3193,0,U,43683,999,2893,0,-.122E-5,0 EUTELSAT 5 WEST B (EGNOS/PRN 121),2019-067A,2026-09-12T07:02:13.778592,1.00271414,.00031178,0.0807,320.7031,210.1059,281.0499,0,U,44624,999,2530,0,-.57E-6,0 BEIDOU-3 G2 (PRN 144),2020-017A,2026-09-12T04:01:01.155072,1.00272263,.0002124,2.5806,48.3907,131.9601,311.1309,0,U,45344,999,2413,0,-.153E-5,0 BEIDOU-3 G3 (PRN 143),2020-040A,2026-09-12T07:35:10.620096,1.00269676,.00026444,2.6569,67.4129,281.4958,226.7590,0,U,45807,999,2294,0,-.367E-5,0 GALAXY 30 (WAAS/PRN 135),2020-056C,2026-09-12T06:28:02.056800,1.00271549,.00022071,0.0228,160.5572,10.2914,152.4352,0,U,46114,999,2216,0,0,0 QZS-1R (QZSS/PRN 196),2021-096A,2026-09-11T09:25:14.441664,1.00288461,.07433985,37.6399,78.3072,269.8635,277.5426,0,U,49336,999,1787,0,-.26E-5,0 QZS-6 (QZSS/PRN 200),2025-023A,2026-09-12T00:14:23.327808,1.00270149,.000161,0.0404,73.6831,112.5074,258.9253,0,U,62876,999,581,0,-.248E-5,0